Location: Glencliff
(36.1226°N, 86.7183°W)
Time: 22:01:02
(UTC+00:00)

USA 267 - Pass Details

Date: 25 August 2019
Orbit: 1101 x 1106 km, 123.0° (Epoch: 10 September)

Event Time Altitude Azimuth Distance (km) Brightness Sun altitude
Rises 10:06:39 0° 172° (S) 3,904 6.0 -13.5°
Reaches altitude 10° 10:09:41 10° 185° (S) 2,950 5.2 -12.9°
Maximum altitude 10:14:44 24° 237° (WSW) 2,103 4.2 -12.0°
Drops below altitude 10° 10:19:49 10° 289° (WNW) 2,959 5.1 -11.0°
Sets 10:22:53 0° 302° (WNW) 3,920 5.8 -10.4°
